Date String (YYYY-MM-DD hh:mm:ss) UTC,Instrument flags,absolute air pressure of the measurement (hPa),sample flow rate (lpm),inlet stack bypass flow (lpm),air temperature of the measurement (°C),ambient temperature measured by the external sensor (°C),aerosol sample conditioner tube jacket temperature (°C),OPC LED temperature (°C),internal box temperature (°C),relative humidity of the measurement (%),span deviation,mass concentration of particles derived from Lorenz-Mie calculation of OPC scattering (μg/m³),mass concentration of particles derived from Lorenz-Mie calculation of OPC scattering (μg/m³),mass concentration of particles derived from Lorenz-Mie calculation of OPC scattering (μg/m³)
DateTimeUTC,F1_M11,P_M11,Q1_M11,Q2_M11,T1_M11,T2_M11,T3_M11,T4_M11,T5_M11,U1_M11,ZSPAN_M11,X0_M11,X2_M11,X1_M11
2023-12-08 15:00:00,SystemResetWarning,0821.7,5.01,000.00,020.9,020.0,000.0,029.3,022.1,12.6,0000.0,0009.35,0001.91,0001.18
2023-12-08 15:01:00,SystemResetWarning,0821.7,5.00,000.00,020.9,020.0,000.0,029.2,022.2,12.7,0000.0,0009.29,0001.92,0001.19
2023-12-08 15:02:00,SystemResetWarning,0821.7,4.99,000.00,020.9,020.0,000.0,029.2,022.2,12.7,0000.0,0009.27,0001.89,0001.18
2023-12-08 15:03:00,SystemResetWarning,0821.6,5.00,000.00,020.9,020.0,000.0,029.2,022.2,12.7,0000.0,0009.29,0001.86,0001.19
2023-12-08 15:04:00,SystemResetWarning,0821.6,5.00,000.00,020.9,020.0,000.0,029.2,022.2,12.7,0000.0,0008.99,0001.79,0001.18
2023-12-08 15:05:00,SystemResetWarning,0821.6,5.01,000.00,020.9,020.0,000.0,029.2,022.2,12.7,0000.0,0008.17,0001.72,0001.18
2023-12-08 15:06:00,SystemResetWarning,0821.6,5.01,000.00,020.9,020.0,000.0,029.2,022.2,12.7,0000.0,0008.16,0001.73,0001.17
2023-12-08 15:07:00,SystemResetWarning,0821.6,5.00,000.00,020.9,020.1,000.0,029.2,022.2,12.7,0000.0,0006.84,0001.72,0001.18
2023-12-08 15:08:00,SystemResetWarning,0821.6,5.00,000.00,020.9,020.1,000.0,029.2,022.2,12.7,0000.0,0006.18,0001.76,0001.19
2023-12-08 15:09:00,SystemResetWarning,0821.6,5.00,000.00,020.9,020.1,000.0,029.2,022.3,12.7,0000.0,0006.05,0001.74,0001.19
2023-12-08 15:10:00,SystemResetWarning,0821.7,5.00,000.00,020.9,020.1,000.0,029.2,022.2,12.7,0000.0,0006.79,0001.78,0001.20
2023-12-08 15:11:00,SystemResetWarning,0821.7,5.00,000.00,020.9,020.0,000.0,029.2,022.2,12.7,0000.0,0006.53,0001.82,0001.20
2023-12-08 15:12:00,SystemResetWarning,0821.6,5.00,000.00,020.9,020.0,000.0,029.2,022.2,12.6,0000.0,0005.08,0001.85,0001.20
2023-12-08 15:13:00,SystemResetWarning,0821.7,5.00,000.00,020.9,020.0,000.0,029.2,022.1,12.4,0000.0,0004.88,0001.87,0001.20
2023-12-08 15:14:00,SystemResetWarning,0821.6,5.01,000.00,020.9,020.0,000.0,029.2,022.1,12.6,0000.0,0005.28,0001.92,0001.20
2023-12-08 15:15:00,SystemResetWarning,0821.6,5.00,000.00,020.9,020.0,000.0,029.2,022.1,12.6,0000.0,0005.56,0001.95,0001.21
2023-12-08 15:16:00,SystemResetWarning,0821.6,5.01,000.00,020.9,020.0,000.0,029.2,022.1,12.7,0000.0,0005.74,0002.05,0001.22
2023-12-08 15:17:00,SystemResetWarning,0821.7,5.00,000.00,020.9,019.9,000.0,029.2,022.1,12.7,0000.0,0005.71,0002.08,0001.22
2023-12-08 15:18:00,SystemResetWarning,0821.7,5.00,000.00,020.9,019.9,000.0,029.2,022.1,12.5,0000.0,0005.75,0002.10,0001.23
2023-12-08 15:19:00,SystemResetWarning,0821.6,4.99,000.00,020.9,019.9,000.0,029.2,022.1,12.6,0000.0,0005.60,0002.06,0001.24
2023-12-08 15:20:00,SystemResetWarning,0821.6,5.00,000.00,020.9,019.9,000.0,029.2,022.1,12.7,0000.0,0005.69,0002.09,0001.25
2023-12-08 15:21:00,SystemResetWarning,0821.6,5.00,000.00,020.9,020.0,000.0,029.2,022.2,12.7,0000.0,0005.62,0002.10,0001.25
2023-12-08 15:22:00,SystemResetWarning,0821.6,5.00,000.00,020.9,020.0,000.0,029.2,022.2,12.7,0000.0,0004.97,0002.05,0001.24
2023-12-08 15:23:00,SystemResetWarning,0821.6,5.00,000.00,020.9,020.0,000.0,029.2,022.2,12.7,0000.0,0005.01,0002.00,0001.24
2023-12-08 15:24:00,SystemResetWarning,0821.6,5.01,000.00,020.9,020.0,000.0,029.2,022.2,12.7,0000.0,0005.10,0001.98,0001.24
2023-12-08 15:25:00,SystemResetWarning,0821.7,5.01,000.00,020.9,020.1,000.0,029.2,022.2,12.7,0000.0,0004.57,0001.96,0001.24
2023-12-08 15:26:00,SystemResetWarning,0821.7,4.99,000.00,020.9,020.1,000.0,029.2,022.2,12.8,0000.0,0004.52,0001.94,0001.25
2023-12-08 15:27:00,SystemResetWarning,0821.6,4.99,000.00,020.9,020.1,000.0,029.2,022.2,12.7,0000.0,0005.48,0001.94,0001.26
2023-12-08 15:28:00,SystemResetWarning,0821.6,5.00,000.00,020.9,020.1,000.0,029.2,022.2,12.6,0000.0,0005.48,0001.91,0001.28
2023-12-08 15:29:00,SystemResetWarning,0821.6,5.01,000.00,020.9,020.1,000.0,029.2,022.2,12.6,0000.0,0005.54,0001.90,0001.28
2023-12-08 15:30:00,SystemResetWarning,0821.6,5.00,000.00,020.9,020.1,000.0,029.2,022.2,12.6,0000.0,0005.52,0001.90,0001.29
2023-12-08 15:31:00,SystemResetWarning,0821.6,4.99,000.00,020.9,020.1,000.0,029.2,022.2,12.6,0000.0,0005.47,0001.92,0001.29
2023-12-08 15:32:00,SystemResetWarning,0821.6,5.00,000.00,020.9,020.1,000.0,029.2,022.2,12.6,0000.0,0005.00,0001.89,0001.30
2023-12-08 15:33:00,SystemResetWarning,0821.6,5.01,000.00,020.9,020.1,000.0,029.2,022.2,12.6,0000.0,0005.00,0001.88,0001.31
2023-12-08 15:34:00,SystemResetWarning,0821.5,5.01,000.00,020.9,020.1,000.0,029.2,022.2,13.0,0000.0,0005.10,0001.95,0001.33
2023-12-08 15:35:00,SystemResetWarning,0821.5,5.01,000.00,020.9,020.1,000.0,029.2,022.2,12.8,0000.0,0006.16,0002.01,0001.35
2023-12-08 15:36:00,SystemResetWarning,0822.1,4.99,000.00,020.9,020.0,000.0,029.2,022.2,12.6,0000.0,0006.29,0002.03,0001.36
2023-12-08 15:37:00,SystemResetWarning,0822.0,4.99,000.00,020.9,020.1,000.0,029.2,022.2,12.6,0000.0,0006.27,0002.01,0001.35
2023-12-08 15:38:00,SystemResetWarning,0822.0,5.00,000.00,020.9,020.1,000.0,029.2,022.2,12.7,0000.0,0005.39,0001.96,0001.36
2023-12-08 15:39:00,SystemResetWarning,0822.0,4.99,000.00,020.9,020.1,000.0,029.2,022.2,12.7,0000.0,0005.37,0001.93,0001.34
2023-12-08 15:40:00,SystemResetWarning,0822.1,5.01,000.00,020.9,020.1,000.0,029.2,022.2,12.8,0000.0,0005.79,0001.91,0001.34
2023-12-08 15:41:00,SystemResetWarning,0822.0,5.01,000.00,020.9,020.1,000.0,029.2,022.2,12.7,0000.0,0007.00,0001.92,0001.33
2023-12-08 15:42:00,SystemResetWarning,0821.5,5.00,000.00,020.9,020.1,000.0,029.2,022.2,12.7,0000.0,0007.11,0001.89,0001.32
2023-12-08 15:43:00,SystemResetWarning,0821.5,5.00,000.00,020.9,020.1,000.0,029.2,022.2,12.8,0000.0,0007.14,0001.88,0001.33
2023-12-08 15:44:00,SystemResetWarning,0821.7,5.00,000.00,020.9,020.1,000.0,029.2,022.3,12.7,0000.0,0007.27,0001.88,0001.33
2023-12-08 15:45:00,SystemResetWarning,0821.7,4.99,000.00,020.9,020.1,000.0,029.2,022.3,12.7,0000.0,0007.29,0001.85,0001.32
2023-12-08 15:46:00,SystemResetWarning,0822.0,5.00,000.00,020.9,020.1,000.0,029.2,022.2,12.7,0000.0,0006.35,0001.82,0001.31
2023-12-08 15:47:00,SystemResetWarning,0822.0,5.01,000.00,020.9,020.1,000.0,029.3,022.3,12.7,0000.0,0005.98,0001.76,0001.31
2023-12-08 15:48:00,SystemResetWarning,0822.0,5.00,000.00,020.9,020.1,000.0,029.3,022.3,12.8,0000.0,0005.73,0001.74,0001.31
2023-12-08 15:49:00,SystemResetWarning,0822.0,5.00,000.00,020.9,020.1,000.0,029.3,022.3,12.7,0000.0,0005.48,0001.73,0001.31
2023-12-08 15:50:00,SystemResetWarning,0821.8,5.00,000.00,021.0,020.1,000.0,029.3,022.3,12.7,0000.0,0005.99,0001.79,0001.30
2023-12-08 15:51:00,SystemResetWarning,0821.5,4.98,000.00,021.0,020.1,000.0,029.3,022.3,12.9,0000.0,0006.41,0001.85,0001.31
2023-12-08 15:52:00,SystemResetWarning,0821.4,5.01,000.00,021.0,020.2,000.0,029.3,022.3,13.3,0000.0,0005.05,0001.87,0001.33
2023-12-08 15:53:00,SystemResetWarning,0821.4,5.01,000.00,021.0,020.2,000.0,029.3,022.3,13.8,0000.0,0005.22,0001.87,0001.34
2023-12-08 15:54:00,SystemResetWarning,0821.4,5.00,000.00,021.0,020.2,000.0,029.3,022.3,14.3,0000.0,0005.76,0001.83,0001.33
2023-12-08 15:55:00,SystemResetWarning,0821.4,4.99,000.00,021.0,020.2,000.0,029.3,022.3,14.6,0000.0,0005.94,0001.83,0001.33
2023-12-08 15:56:00,SystemResetWarning,0821.4,5.00,000.00,021.0,020.2,000.0,029.3,022.3,14.6,0000.0,0006.17,0001.88,0001.33
2023-12-08 15:57:00,SystemResetWarning,0821.4,4.99,000.00,021.0,020.2,000.0,029.3,022.4,14.3,0000.0,0006.76,0001.88,0001.34
2023-12-08 15:58:00,SystemResetWarning,0821.4,5.00,000.00,021.0,020.2,000.0,029.3,022.3,14.3,0000.0,0007.54,0001.92,0001.34
2023-12-08 15:59:00,SystemResetWarning,0821.4,5.01,000.00,021.0,020.2,000.0,029.3,022.3,14.3,0000.0,0007.63,0001.97,0001.35
